Regional Weather Roundup
Issued by NWS State College, PA

Home | Current Version | Previous Version | Graphics & Text | Print | Product List | Glossary On
Versions: 1 2 3 4 5 6 7 8 9 10 11 12 13 14 15 16 17 18 19 20 21 22 23 24 25 26 27 28 29 30 31 32 33 34 35 36 37 38 39 40 41 42 43 44 45 46 47 48 49 50
000
ASUS41 KCTP 260103
RWRCTP

REGIONAL WEATHER ROUNDUP
NATIONAL WEATHER SERVICE STATE COLLEGE PA
900 PM EDT SAT OCT 25 2014

Note: "fair" indicates few or no clouds below 12,000 feet with no
significant weather and/or obstructions to visibility.

* = STATION THAT DOES NOT REPORT PRECIPITATION /E.G. RAIN...SNOW...ETC/
    THUNDER OR FOG.

PAZ002>004-007>009-013>016-020>023-029>032-260200-
WESTERN PENNSYLVANIA

CITY           SKY/WX    TMP DP  RH WIND       PRES   REMARKS
ERIE           CLEAR     59  51  75 W12G21    29.69F
MEADVILLE      CLEAR     57  44  62 W14       29.71F
FRANKLIN*      CLEAR     57  41  54 W13G21    29.73F
NEW CASTLE       N/A     63  40  42 W12G17    29.75S
BEAVER COUNTY  CLEAR     61  50  67 W9G16     29.75S
BUTLER*        PTCLDY    59  50  72 SW9       29.75F
PITTSBURGH INT PTCLDY    61  52  72 SW9       29.75S
PITTSBURGH     MOCLDY    62  49  62 SW16G24   29.74F
INDIANA*       CLOUDY    61  52  72 W12G20    29.76S
LATROBE        PTCLDY    61  54  77 SW17G29   29.76F
WASHINGTON CO* PTCLDY    61  50  67 SW13      29.79S
$$

PAZ004>006-010>012-017>019-024>028-033>037-041-042-045-046-049>053-260200-
CENTRAL PENNSYLVANIA

CITY           SKY/WX    TMP DP  RH WIND       PRES   REMARKS
BRADFORD       PTCLDY    54  44  69 W14G26    29.69F
DUBOIS         MOCLDY    57  43  59 NW12      29.70S
CLEARFIELD     PTCLDY    60  49  66 W12G20    29.69S
JOHNSTOWN      CLOUDY    57  48  72 SW18      29.74F
ALTOONA        PTCLDY    61  50  67 W16G24    29.70F
STATE COLLEGE  MOCLDY    61  50  67 W14       29.66F
WILLIAMSPORT   CLOUDY    61  48  62 N3        29.61F
SELINSGROVE    CLEAR     63  48  58 SW5       29.65F
FT INDIANTOWN  CLEAR     60  49  66 W2        29.66F
CAPITAL CITY   CLEAR     61  47  59 W5        29.67F
HARRISBURG     CLEAR     65  48  54 W13G20    29.66F
YORK           CLEAR     60  44  55 CALM      29.69F
$$

PAZ038>040-043-044-047-048-054-055-060>062-067>071-260200-
EASTERN PENNSYLVANIA

CITY           SKY/WX    TMP DP  RH WIND       PRES   REMARKS
SCRANTON       CLOUDY    63  46  54 SW9       29.61S
MOUNT POCONO   CLEAR     57  44  62 W16       29.62F
ALLENTOWN      CLEAR     58  45  62 SW9       29.63F
QUAKERTOWN*    CLEAR     59  46  63 SW6       29.66F
READING        CLEAR     62  45  53 SW6       29.65F
LANCASTER      CLEAR     59  43  55 W3        29.68F
COATESVILLE    CLEAR     59  45  58 SW5       29.69F
POTTSTOWN      PTCLDY    61  44  53 CALM      29.67F
BLUE BELL      PTCLDY    63  45  51 SW3       29.66F
DOYLESTOWN     MOCLDY    61  44  53 SW8       29.65F
WILLOW GROVE   NOT AVBL
NORTH PHILA    PTCLDY    65  43  44 SW8       29.68F
PHILADELPHIA   PTCLDY    62  46  55 SW12      29.68F
$$



USA.gov is the U.S. government's official web portal to all federal, state and local government web resources and services.